Measurements were made at the meteorological tower in Juelich (50.90 N / 6.40 E) at an altitude of 100 m,
"Instrument: Fast Greenhouse Gas Analyzer (FGGA), Los Gatos Inc.",
Responsible PI: Dr. Marc von Hobe; Forschungszentrum Juelich GmbH; IEK-7; email: m.von.hobe@fz-juelich.de,
NaN or negative numbers are fill values (i.e. no valid measurements were made at that time),
Uncertainties are given as the 1-sigma standard deviation over each 10 minute intervals. In each interval ~600 individual measurements are carried out so that the standard error of the mean is approximately sigma/sqrt(600).,
time_utc,CO2_ppm,stdev_CO2_ppm,CH4_ppm,stdev_CH4_ppm,H2O_ppm,stdev_H2O_ppm
"2016-01-01 00:05:00 000",414.604,3.41509,1.91815,0.00448509,6102.07,162.431
"2016-01-01 00:15:00 000",416.293,4.28925,1.91814,0.00432219,6090.97,165.277
"2016-01-01 00:25:00 000",412.491,3.05941,1.91864,0.00452323,6078.14,164.688
"2016-01-01 00:35:00 000",417.598,4.61028,1.91946,0.00470613,6170.54,169.840
"2016-01-01 00:45:00 000",411.331,4.33131,1.91964,0.00425096,6248.33,161.195
"2016-01-01 00:55:00 000",408.100,3.61396,1.91847,0.00442859,6367.63,177.860
"2016-01-01 01:05:00 000",406.340,2.48759,1.91903,0.00419035,6428.72,163.798
"2016-01-01 01:15:00 000",412.102,4.67596,1.92021,0.00428679,6507.16,174.277
"2016-01-01 01:25:00 000",415.296,3.41482,1.92010,0.00431910,6622.00,162.084
"2016-01-01 01:35:00 000",413.902,5.42325,1.91951,0.00431600,6738.06,156.993
"2016-01-01 01:45:00 000",413.368,4.64338,1.91918,0.00439751,6796.46,169.493
"2016-01-01 01:55:00 000",409.728,3.10384,1.91866,0.00462827,6890.05,165.325
"2016-01-01 02:05:00 000",410.672,3.69389,1.91898,0.00444394,6920.66,166.571
"2016-01-01 02:15:00 000",413.621,2.61795,1.92182,0.00468745,6949.81,157.439
"2016-01-01 02:25:00 000",410.388,1.39701,1.92310,0.00430392,7014.85,151.946
"2016-01-01 02:35:00 000",412.683,1.53095,1.92402,0.00416475,7066.75,144.330
"2016-01-01 02:45:00 000",409.126,2.65920,1.92409,0.00430929,7056.84,146.783
"2016-01-01 02:55:00 000",409.409,1.07351,1.92678,0.00434349,7061.01,125.974
"2016-01-01 03:05:00 000",407.606,1.38284,1.93007,0.00432339,7062.29,115.051
"2016-01-01 03:15:00 000",406.100,1.09319,1.93428,0.00443057,7130.61,107.858
"2016-01-01 03:25:00 000",403.782,1.01664,1.93845,0.00410296,7241.44,123.316
"2016-01-01 03:35:00 000",402.640,0.861093,1.93401,0.00374939,7434.09,107.080
"2016-01-01 03:45:00 000",402.720,0.755466,1.93625,0.00372650,7521.99,102.288
"2016-01-01 03:55:00 000",402.703,0.764742,1.93731,0.00418414,7567.75,102.476
"2016-01-01 04:05:00 000",402.825,0.874176,1.93604,0.00405876,7613.15,114.839
"2016-01-01 04:15:00 000",403.143,0.799494,1.93614,0.00393773,7683.62,108.216
"2016-01-01 04:25:00 000",403.359,0.792442,1.93675,0.00382017,7720.71,107.722
"2016-01-01 04:35:00 000",403.193,0.752692,1.93800,0.00381602,7771.90,114.125
"2016-01-01 04:45:00 000",403.542,0.768563,1.93827,0.00388206,7772.72,118.178
"2016-01-01 04:55:00 000",403.614,0.786920,1.94031,0.00401923,7804.58,125.531
"2016-01-01 05:05:00 000",403.728,0.790535,1.94216,0.00425629,7793.15,124.680
"2016-01-01 05:15:00 000",403.567,0.806740,1.94226,0.00410868,7769.99,127.200
"2016-01-01 05:25:00 000",403.778,0.801552,1.94249,0.00403270,7764.47,136.508
"2016-01-01 05:35:00 000",404.042,0.791061,1.94347,0.00397173,7746.79,133.316
"2016-01-01 05:45:00 000",404.176,0.807180,1.94438,0.00433984,7779.20,146.440
"2016-01-01 05:55:00 000",404.408,0.792941,1.94637,0.00446006,7842.57,153.359
"2016-01-01 06:05:00 000",404.502,0.848112,1.94914,0.00475935,7861.13,152.209
"2016-01-01 06:15:00 000",404.697,0.904223,1.95003,0.00570197,7765.10,162.292
"2016-01-01 06:25:00 000",403.733,1.09404,1.94383,0.00653375,7765.13,164.962
"2016-01-01 06:35:00 000",404.495,0.823029,1.94687,0.00433227,7610.08,144.094
"2016-01-01 06:45:00 000",404.676,0.749820,1.94543,0.00419098,7583.07,146.963
"2016-01-01 06:55:00 000",404.559,0.808028,1.94901,0.00525303,7586.65,146.186
"2016-01-01 07:05:00 000",404.656,0.806436,1.95750,0.00460018,7587.50,152.264
"2016-01-01 07:15:00 000",405.110,0.842855,1.96146,0.00582674,7611.05,155.549
"2016-01-01 07:25:00 000",406.064,0.773289,1.95820,0.00580958,7569.54,162.340
"2016-01-01 07:35:00 000",405.981,0.792727,1.95300,0.00465530,7571.38,164.886
"2016-01-01 07:45:00 000",405.667,0.824814,1.95495,0.00453548,7606.09,161.149
"2016-01-01 07:55:00 000",405.660,0.800034,1.96794,0.0121771,7596.33,174.959
"2016-01-01 08:05:00 000",406.903,1.13207,1.97577,0.00728202,7560.91,175.611
"2016-01-01 08:15:00 000",407.557,0.912566,1.96907,0.00627111,7636.82,191.514
"2016-01-01 08:25:00 000",407.905,1.06202,1.96757,0.00755323,7675.34,188.910
"2016-01-01 08:35:00 000",407.859,0.831762,1.96307,0.00541832,7618.21,190.901
"2016-01-01 08:45:00 000",407.570,0.909510,1.95833,0.00517822,7468.75,179.995
"2016-01-01 08:55:00 000",407.787,0.797859,1.95870,0.00475288,7507.52,167.425
"2016-01-01 09:05:00 000",407.888,0.749262,1.95888,0.00445112,7530.19,147.770
"2016-01-01 09:15:00 000",408.428,0.801244,1.95775,0.00483476,7591.73,132.053
"2016-01-01 09:25:00 000",408.580,0.904681,1.95880,0.00471271,7587.22,130.121
"2016-01-01 09:35:00 000",408.949,0.829670,1.95781,0.00406854,7780.98,91.9624
"2016-01-01 09:45:00 000",409.040,0.832793,1.95704,0.00379296,7660.48,105.093
"2016-01-01 09:55:00 000",408.407,0.861075,1.95477,0.00365193,7619.85,78.6942
"2016-01-01 10:05:00 000",408.102,1.26274,1.96124,0.0147710,7499.56,126.824
"2016-01-01 10:15:00 000",408.552,1.03901,1.96864,0.0140035,7412.91,101.762
"2016-01-01 10:25:00 000",407.837,0.816541,1.95957,0.00645168,7371.37,85.9072
"2016-01-01 10:35:00 000",407.288,0.947529,1.95723,0.00894086,7405.03,90.2970
"2016-01-01 10:45:00 000",406.847,0.752655,1.94911,0.00454452,7572.56,97.3908
"2016-01-01 10:55:00 000",407.710,0.875223,1.94706,0.00629881,7536.17,86.6248
"2016-01-01 11:05:00 000",408.611,0.800619,1.94924,0.00438534,7488.81,78.1022
"2016-01-01 11:15:00 000",408.213,1.01491,1.96128,0.0131301,7580.06,82.7502
"2016-01-01 11:25:00 000",408.025,0.789606,1.98339,0.00959304,7529.49,81.0132
"2016-01-01 11:35:00 000",407.844,0.850353,1.97650,0.0111978,7683.19,93.3975
"2016-01-01 11:45:00 000",407.001,0.811563,1.96802,0.00864326,7656.07,88.5864
"2016-01-01 11:55:00 000",405.775,0.914085,1.95776,0.00757180,7753.06,92.8267
"2016-01-01 12:05:00 000",405.559,1.46994,1.95196,0.00812105,7575.64,131.618
"2016-01-01 12:15:00 000",405.972,0.893423,1.95445,0.00452870,7554.59,146.403
"2016-01-01 12:25:00 000",405.235,1.00118,1.96221,0.0167829,7642.49,87.2801
"2016-01-01 12:35:00 000",406.809,1.63108,1.99674,0.0169128,7626.65,75.8493
"2016-01-01 12:45:00 000",405.295,1.35782,1.97848,0.0186255,7475.33,104.343
"2016-01-01 12:55:00 000",404.932,0.882346,1.96166,0.0112042,7498.54,75.8482
"2016-01-01 13:05:00 000",404.405,0.842299,1.95379,0.00544063,7565.34,71.4699
"2016-01-01 13:15:00 000",403.417,0.858610,1.95204,0.00662927,7620.31,76.7282
"2016-01-01 13:25:00 000",403.201,0.869448,1.94838,0.00563199,7569.42,85.0039
"2016-01-01 13:35:00 000",403.383,0.736120,1.95830,0.00890306,7539.95,79.7215
"2016-01-01 13:45:00 000",403.051,0.789867,1.98023,0.00913345,7563.47,78.5095
"2016-01-01 13:55:00 000",404.544,0.895551,2.02261,0.0132437,7638.91,93.1419
"2016-01-01 14:05:00 000",405.225,0.809272,2.01529,0.0112255,7768.79,83.8717
"2016-01-01 14:15:00 000",404.740,0.771591,1.99004,0.00947377,7775.47,83.5276
"2016-01-01 14:25:00 000",406.074,1.35092,2.00118,0.00964400,7729.57,84.3858
"2016-01-01 14:35:00 000",411.181,2.27650,2.02619,0.00832357,7681.82,82.5830
"2016-01-01 14:45:00 000",415.922,1.20365,2.05799,0.00879123,7654.29,80.6627
"2016-01-01 14:55:00 000",418.642,1.07709,2.05272,0.00913217,7690.97,80.7226
"2016-01-01 15:05:00 000",418.879,0.926297,2.06017,0.00957920,7729.94,79.9972
"2016-01-01 15:15:00 000",418.621,0.970399,2.08628,0.0109829,7700.69,83.5036
"2016-01-01 15:25:00 000",418.365,1.32029,2.05665,0.0160675,7609.96,83.3873
"2016-01-01 15:35:00 000",416.524,1.40479,2.03712,0.00864895,7500.47,86.1088
"2016-01-01 15:45:00 000",414.174,1.18527,2.02065,0.0100144,7425.70,86.8754
"2016-01-01 15:55:00 000",413.361,0.879870,2.01936,0.00997451,7382.98,96.8321
"2016-01-01 16:05:00 000",412.225,0.884797,2.01224,0.00783128,7353.32,104.934
"2016-01-01 16:15:00 000",412.960,0.939844,2.03310,0.0129135,7354.57,139.315
"2016-01-01 16:25:00 000",413.249,0.904015,2.04297,0.0110496,7365.61,157.649
"2016-01-01 16:35:00 000",412.271,0.923376,2.02655,0.00769807,7324.71,189.194
"2016-01-01 16:45:00 000",412.438,0.845830,2.02562,0.00829986,7324.31,227.417
"2016-01-01 16:55:00 000",411.879,0.929939,2.01204,0.0113915,7437.20,233.631
"2016-01-01 17:05:00 000",410.488,1.03899,1.99060,0.0106806,7641.93,235.443
"2016-01-01 17:15:00 000",411.375,0.949664,1.98869,0.00756897,7690.09,236.847
"2016-01-01 17:25:00 000",411.755,1.05531,1.98823,0.00696154,7647.85,238.883
"2016-01-01 17:35:00 000",412.190,0.999322,1.98500,0.00761082,7613.27,247.852
"2016-01-01 17:45:00 000",412.747,0.953262,1.98470,0.00613525,7572.58,245.330
"2016-01-01 17:55:00 000",412.873,0.871297,1.98238,0.00595721,7524.00,247.285
"2016-01-01 18:05:00 000",413.179,0.898382,1.98074,0.00583491,7492.21,246.483
"2016-01-01 18:15:00 000",412.827,0.894172,1.97788,0.00627766,7518.28,235.573
"2016-01-01 18:25:00 000",412.710,0.877502,1.97506,0.00599464,7510.69,252.974
"2016-01-01 18:35:00 000",412.087,0.814230,1.97153,0.00602418,7525.35,243.361
"2016-01-01 18:45:00 000",411.496,0.942783,1.96779,0.00638446,7569.16,245.087
"2016-01-01 18:55:00 000",411.247,0.869840,1.96638,0.00590217,7616.35,241.149
"2016-01-01 19:05:00 000",411.190,0.851991,1.96360,0.00639492,7576.86,240.420
"2016-01-01 19:15:00 000",411.662,0.840922,1.96680,0.00602581,7550.27,223.905
"2016-01-01 19:25:00 000",411.788,0.874960,1.97333,0.00748206,7526.76,225.796
"2016-01-01 19:35:00 000",409.781,1.10709,1.96522,0.00849792,7535.55,225.271
"2016-01-01 19:45:00 000",408.100,0.898565,1.94931,0.00867613,7474.64,234.796
"2016-01-01 19:55:00 000",407.871,0.770096,1.94518,0.00539671,7376.69,239.922
"2016-01-01 20:05:00 000",407.748,0.814105,1.94244,0.00557881,7259.76,224.013
"2016-01-01 20:15:00 000",407.549,0.782079,1.93932,0.00548442,7180.92,220.134
"2016-01-01 20:25:00 000",407.124,0.814392,1.93905,0.00532916,7132.61,231.252
"2016-01-01 20:35:00 000",406.604,0.818222,1.93869,0.00539633,7094.36,215.262
"2016-01-01 20:45:00 000",406.623,0.888085,1.93669,0.00533716,7048.65,222.888
"2016-01-01 20:55:00 000",406.060,0.803387,1.93586,0.00540336,7042.14,222.375
"2016-01-01 21:05:00 000",405.958,0.820158,1.93355,0.00545331,7006.21,212.177
"2016-01-01 21:15:00 000",405.356,0.836264,1.93083,0.00530139,6971.22,215.833
"2016-01-01 21:25:00 000",405.021,0.794542,1.93100,0.00513346,6893.10,202.245
"2016-01-01 21:35:00 000",405.685,0.825337,1.93035,0.00550844,6815.32,209.606
"2016-01-01 21:45:00 000",406.247,0.821361,1.93401,0.00529990,6820.81,229.297
"2016-01-01 21:55:00 000",406.722,0.834658,1.93909,0.00551640,6834.86,220.386
"2016-01-01 22:05:00 000",407.210,0.882810,1.94314,0.00594298,6813.54,223.922
"2016-01-01 22:15:00 000",407.930,0.863232,1.95237,0.00676015,6775.16,214.938
"2016-01-01 22:25:00 000",408.013,0.812840,1.95088,0.00773166,6804.79,219.062
"2016-01-01 22:35:00 000",408.183,0.825857,1.94561,0.00612904,6742.19,207.725
"2016-01-01 22:45:00 000",408.012,0.861817,1.94765,0.00556809,6675.99,216.563
"2016-01-01 22:55:00 000",407.755,0.873620,1.94307,0.00594799,6661.22,204.046
"2016-01-01 23:05:00 000",408.078,0.871314,1.94200,0.00548776,6662.78,200.756
"2016-01-01 23:15:00 000",408.576,0.874180,1.94421,0.00572514,6686.23,183.958
"2016-01-01 23:25:00 000",408.301,0.901067,1.94598,0.00579891,6717.15,188.704
"2016-01-01 23:35:00 000",408.413,0.921550,1.94917,0.00585561,6729.28,183.586
"2016-01-01 23:45:00 000",408.543,0.941618,1.94759,0.00608393,6701.95,177.440
"2016-01-01 23:55:00 000",408.419,0.871126,1.94875,0.00540379,6729.28,168.233
"2016-01-02 00:05:00 000",408.967,0.984077,1.94988,0.00512878,6716.03,172.896
"2016-01-02 00:15:00 000",409.498,0.887317,1.95382,0.00546198,6746.73,171.397
"2016-01-02 00:25:00 000",410.108,0.923241,1.95701,0.00529270,6780.81,167.637
"2016-01-02 00:35:00 000",410.327,0.862797,1.96004,0.00489699,6755.98,164.610
"2016-01-02 00:45:00 000",410.939,0.910709,1.96949,0.00606383,6707.29,159.520
"2016-01-02 00:55:00 000",411.460,0.839570,1.97626,0.00554983,6735.40,161.369
"2016-01-02 01:05:00 000",411.941,0.909038,1.97587,0.00484039,6735.27,169.770
"2016-01-02 01:15:00 000",412.329,0.873124,1.97515,0.00487903,6710.98,158.747
"2016-01-02 01:25:00 000",412.635,0.894205,1.97703,0.00508899,6691.82,161.900
"2016-01-02 01:35:00 000",412.901,0.856291,1.98239,0.00515316,6672.10,160.005
"2016-01-02 01:45:00 000",413.319,0.838170,1.98911,0.00520855,6613.62,153.631
"2016-01-02 01:55:00 000",413.414,0.855138,1.98893,0.00527832,6628.80,157.777
"2016-01-02 02:05:00 000",414.113,0.894303,1.99230,0.00539471,6611.86,151.061
"2016-01-02 02:15:00 000",414.377,0.899993,1.99101,0.00467943,6613.84,156.416
"2016-01-02 02:25:00 000",414.438,0.865196,1.99314,0.00514310,6578.31,153.767
"2016-01-02 02:35:00 000",414.653,0.832925,1.99540,0.00516811,6543.78,146.465
"2016-01-02 02:45:00 000",414.913,0.879547,1.99562,0.00477722,6592.37,147.000
"2016-01-02 02:55:00 000",414.877,0.835935,1.99364,0.00485706,6599.03,153.839
"2016-01-02 03:05:00 000",415.009,0.864027,1.99387,0.00453346,6576.44,150.902
"2016-01-02 03:15:00 000",414.956,0.838614,1.99782,0.00485465,6587.53,140.307
"2016-01-02 03:25:00 000",415.037,0.864500,1.99770,0.00496044,6588.56,141.424
"2016-01-02 03:35:00 000",414.785,0.884944,2.00223,0.00501841,6560.60,138.583
"2016-01-02 03:45:00 000",414.703,0.843550,2.00458,0.00479583,6568.33,137.611
"2016-01-02 03:55:00 000",414.726,0.900296,2.00229,0.00467575,6525.14,141.063
"2016-01-02 04:05:00 000",414.262,0.951351,1.99752,0.00550064,6498.53,151.632
"2016-01-02 04:15:00 000",414.425,0.872927,1.99779,0.00442148,6483.88,144.376
"2016-01-02 04:25:00 000",414.505,0.816177,2.00056,0.00464668,6521.60,142.368
"2016-01-02 04:35:00 000",414.475,0.863447,2.00168,0.00460092,6529.61,146.576
"2016-01-02 04:45:00 000",414.280,0.843987,2.00136,0.00449352,6559.35,145.807
"2016-01-02 04:55:00 000",414.115,0.870413,2.00299,0.00482647,6571.63,143.873
"2016-01-02 05:05:00 000",414.198,0.807679,2.00451,0.00455997,6559.29,138.770
"2016-01-02 05:15:00 000",414.426,0.820070,2.00405,0.00464068,6502.38,153.749
"2016-01-02 05:25:00 000",414.467,0.817305,2.00398,0.00468245,6460.94,138.950
"2016-01-02 05:35:00 000",414.514,0.810872,2.00275,0.00428363,6380.70,144.683
"2016-01-02 05:45:00 000",414.668,0.825740,2.00014,0.00432538,6487.56,144.669
"2016-01-02 05:55:00 000",414.592,0.804145,1.99613,0.00442220,6583.54,128.986
"2016-01-02 06:05:00 000",414.793,0.809704,1.99617,0.00447183,6619.64,130.450
"2016-01-02 06:15:00 000",414.752,0.824901,1.99619,0.00421200,6689.36,129.924
"2016-01-02 06:25:00 000",414.607,0.820071,1.99850,0.00417524,6697.92,130.067
"2016-01-02 06:35:00 000",414.791,0.804492,1.99723,0.00455591,6725.75,139.769
"2016-01-02 06:45:00 000",414.722,0.807673,1.99643,0.00468472,6758.84,141.733
"2016-01-02 06:55:00 000",414.704,0.866915,1.99481,0.00442485,6809.10,136.790
"2016-01-02 07:05:00 000",415.138,0.805174,1.99656,0.00422222,6844.43,137.409
"2016-01-02 07:15:00 000",415.351,0.807002,1.99625,0.00411713,6897.40,137.345
"2016-01-02 07:25:00 000",415.432,0.790875,1.99637,0.00444327,6969.36,140.759
"2016-01-02 07:35:00 000",415.438,0.828021,1.99536,0.00440061,7007.86,140.996
"2016-01-02 07:45:00 000",415.430,0.814934,1.99570,0.00438619,7041.38,138.920
"2016-01-02 07:55:00 000",415.670,0.843237,1.99665,0.00456004,7055.28,139.579
"2016-01-02 08:05:00 000",415.734,0.832282,1.99936,0.00449291,7055.06,137.534
"2016-01-02 08:15:00 000",416.037,0.831792,2.00412,0.00430851,7022.87,144.214
"2016-01-02 08:25:00 000",416.078,0.863349,2.00298,0.00456895,7037.41,141.946
"2016-01-02 08:35:00 000",416.328,0.850542,2.00389,0.00422656,7071.12,138.112
"2016-01-02 08:45:00 000",416.266,0.866125,2.00408,0.00429409,7088.56,142.374
"2016-01-02 08:55:00 000",416.622,0.838214,2.00466,0.00452680,7082.10,146.906
"2016-01-02 09:05:00 000",416.707,0.839538,2.00767,0.00444328,7086.28,139.015
"2016-01-02 09:15:00 000",416.897,0.822705,2.00827,0.00429242,7085.59,144.007
"2016-01-02 09:25:00 000",416.936,0.793989,2.00853,0.00430520,7089.99,146.790
"2016-01-02 09:35:00 000",416.921,0.812910,2.00809,0.00416313,7114.29,156.233
"2016-01-02 09:45:00 000",417.284,0.824546,2.01001,0.00428485,7124.27,142.903
"2016-01-02 09:55:00 000",417.488,0.829777,2.01238,0.00448244,7114.96,146.010
"2016-01-02 10:05:00 000",417.846,0.815000,2.01419,0.00418842,7120.23,149.622
"2016-01-02 10:15:00 000",417.641,0.848024,2.01303,0.00422143,7142.81,143.356
"2016-01-02 10:25:00 000",417.574,0.785451,2.01403,0.00431052,7185.12,142.048
"2016-01-02 10:35:00 000",417.762,0.817118,2.01502,0.00430343,7197.20,145.001
"2016-01-02 10:45:00 000",417.817,0.837106,2.01520,0.00428590,7226.52,140.999
"2016-01-02 10:55:00 000",417.860,0.811485,2.01679,0.00423380,7234.34,146.538
"2016-01-02 11:05:00 000",417.910,0.810322,2.01750,0.00432705,7274.94,142.304
"2016-01-02 11:15:00 000",418.077,0.805211,2.01732,0.00441409,7334.11,145.561
"2016-01-02 11:25:00 000",417.963,0.861311,2.01547,0.00457200,7395.77,145.853
"2016-01-02 11:35:00 000",418.177,0.841467,2.01576,0.00451757,7396.88,145.288
"2016-01-02 11:45:00 000",418.486,0.832384,2.01716,0.00459221,7388.06,146.582
"2016-01-02 11:55:00 000",418.571,0.887622,2.01953,0.00416036,7404.98,145.137
"2016-01-02 12:05:00 000",418.463,0.834560,2.02171,0.00455650,7425.52,148.581
"2016-01-02 12:15:00 000",418.430,0.861037,2.02357,0.00436802,7502.21,151.753
"2016-01-02 12:25:00 000",418.214,0.810682,2.02348,0.00479482,7578.11,157.158
"2016-01-02 12:35:00 000",417.946,0.886694,2.02455,0.00456674,7615.62,160.062
"2016-01-02 12:45:00 000",417.768,0.908418,2.02441,0.00466383,7681.41,165.903
"2016-01-02 12:55:00 000",418.283,0.903552,2.02562,0.00494292,7675.06,162.933
"2016-01-02 13:05:00 000",418.023,0.954600,2.02919,0.00523149,7694.50,179.273
"2016-01-02 13:15:00 000",417.400,0.916600,2.02654,0.00498676,7781.83,172.387
"2016-01-02 13:25:00 000",417.608,0.863273,2.02955,0.00541160,7837.04,174.976
"2016-01-02 13:35:00 000",416.666,0.957193,2.02524,0.00583097,7906.24,187.195
"2016-01-02 13:45:00 000",416.152,0.868813,2.02141,0.00614693,8065.06,201.539
"2016-01-02 13:55:00 000",416.311,0.958911,2.02461,0.00798838,8111.07,206.010
"2016-01-02 14:05:00 000",416.481,0.893813,2.02925,0.00681988,8045.58,204.050
"2016-01-02 14:15:00 000",416.284,0.905316,2.03540,0.00795968,8041.63,207.911
"2016-01-02 14:25:00 000",416.890,0.964304,2.02449,0.00794593,7934.22,213.369
"2016-01-02 14:35:00 000",416.639,0.944245,2.02015,0.00641550,7784.32,225.426
"2016-01-02 14:45:00 000",416.636,1.02492,2.01710,0.00600286,7696.45,235.828
"2016-01-02 14:55:00 000",417.570,0.902312,2.01375,0.00599406,7599.86,226.328
"2016-01-02 15:05:00 000",417.266,0.921660,2.01236,0.00609817,7543.88,243.565
"2016-01-02 15:15:00 000",417.493,0.905088,2.00949,0.00554799,7520.35,236.893
"2016-01-02 15:25:00 000",417.482,0.941578,2.00973,0.00574577,7489.41,238.598
"2016-01-02 15:35:00 000",417.644,0.909595,2.00945,0.00601232,7420.48,233.356
"2016-01-02 15:45:00 000",417.898,0.973806,2.00932,0.00606330,7364.71,238.648
"2016-01-02 15:55:00 000",418.755,0.921538,2.01213,0.00606510,7250.71,227.901
"2016-01-02 16:05:00 000",418.946,0.865379,2.01246,0.00568426,7219.28,243.905
"2016-01-02 16:15:00 000",419.088,0.927653,2.01130,0.00558237,7219.93,238.187
"2016-01-02 16:25:00 000",419.688,0.947405,2.01125,0.00585456,7247.11,230.522
"2016-01-02 16:35:00 000",419.171,1.00772,2.01146,0.00553373,7280.89,221.206
"2016-01-02 16:45:00 000",419.898,0.990010,2.01151,0.00600695,7346.95,226.743
"2016-01-02 16:55:00 000",420.367,0.902150,2.01307,0.00537340,7410.69,226.298
"2016-01-02 17:05:00 000",420.486,0.962872,2.01392,0.00558762,7459.84,232.407
"2016-01-02 17:15:00 000",420.299,1.00074,2.01374,0.00540603,7525.28,222.790
"2016-01-02 17:25:00 000",420.540,0.985928,2.01618,0.00558506,7475.93,215.337
"2016-01-02 17:35:00 000",420.681,0.979290,2.01901,0.00532243,7467.41,213.177
"2016-01-02 17:45:00 000",421.369,0.936961,2.02253,0.00569078,7392.02,214.843
"2016-01-02 17:55:00 000",421.451,0.987489,2.02348,0.00585881,7405.63,208.246
"2016-01-02 18:05:00 000",421.219,0.972556,2.02350,0.00535901,7406.21,208.163
"2016-01-02 18:15:00 000",421.401,1.06651,2.02272,0.00583924,7458.63,217.145
"2016-01-02 18:25:00 000",422.461,0.890691,2.02418,0.00551112,7316.09,220.229
"2016-01-02 18:35:00 000",421.719,0.961001,2.01836,0.00577996,7354.04,221.274
"2016-01-02 18:45:00 000",421.536,0.944945,2.01610,0.00557654,7414.47,212.540
"2016-01-02 18:55:00 000",422.238,1.09328,2.01975,0.00583495,7361.61,236.970
"2016-01-02 19:05:00 000",422.410,0.958036,2.02177,0.00571561,7319.13,213.625
"2016-01-02 19:15:00 000",422.397,0.949934,2.01832,0.00566579,7297.30,224.048
"2016-01-02 19:25:00 000",422.078,0.927460,2.01871,0.00541480,7323.24,222.087
"2016-01-02 19:35:00 000",421.843,1.03073,2.01753,0.00556679,7343.18,222.836
"2016-01-02 19:45:00 000",421.814,0.941623,2.01603,0.00560566,7309.39,204.535
"2016-01-02 19:55:00 000",421.867,0.923837,2.01708,0.00580565,7300.60,208.364
"2016-01-02 20:05:00 000",420.892,1.00997,2.01203,0.00551506,7350.02,214.543
"2016-01-02 20:15:00 000",420.559,0.971053,2.01350,0.00530022,7455.44,216.417
"2016-01-02 20:25:00 000",420.394,0.955413,2.01388,0.00536644,7469.01,217.929
"2016-01-02 20:35:00 000",420.791,0.942779,2.01412,0.00557679,7504.68,225.750
"2016-01-02 20:45:00 000",421.124,0.969038,2.01426,0.00590537,7438.16,218.328
"2016-01-02 20:55:00 000",422.274,0.995423,2.01739,0.00560312,7384.28,219.205
"2016-01-02 21:05:00 000",421.997,1.02801,2.01680,0.00597926,7442.75,207.034
"2016-01-02 21:15:00 000",421.815,1.02786,2.01730,0.00538779,7470.35,217.507
"2016-01-02 21:25:00 000",421.460,0.954486,2.01907,0.00591048,7497.59,219.486
"2016-01-02 21:35:00 000",422.180,0.969944,2.01807,0.00592642,7409.61,223.184
"2016-01-02 21:45:00 000",421.687,0.897564,2.02076,0.00585126,7359.21,223.773
"2016-01-02 21:55:00 000",421.616,0.939653,2.02497,0.00611708,7391.27,219.299
"2016-01-02 22:05:00 000",421.476,0.924433,2.02646,0.00579232,7376.02,235.143
"2016-01-02 22:15:00 000",421.452,0.918960,2.02513,0.00571674,7381.38,222.124
"2016-01-02 22:25:00 000",421.282,0.885984,2.02334,0.00576098,7403.06,224.989
"2016-01-02 22:35:00 000",421.406,0.895940,2.02006,0.00565781,7417.55,229.910
"2016-01-02 22:45:00 000",421.590,0.937490,2.02094,0.00574410,7393.82,233.350
"2016-01-02 22:55:00 000",421.624,0.885840,2.02181,0.00558078,7380.97,223.123
"2016-01-02 23:05:00 000",421.437,0.951949,2.02152,0.00578441,7394.44,239.947
"2016-01-02 23:15:00 000",421.260,0.946588,2.01917,0.00590734,7408.37,228.497
"2016-01-02 23:25:00 000",421.538,0.916781,2.02065,0.00614729,7419.82,222.190
"2016-01-02 23:35:00 000",421.952,0.945124,2.02311,0.00531897,7405.00,220.007
"2016-01-02 23:45:00 000",421.849,0.894572,2.02351,0.00574136,7396.23,218.224
"2016-01-02 23:55:00 000",421.523,1.02088,2.02351,0.00665643,7410.54,229.844
"2016-01-03 00:05:00 000",419.964,1.04899,2.01805,0.00601560,7479.33,224.094
"2016-01-03 00:15:00 000",419.617,0.906737,2.02046,0.00639823,7506.00,224.188
"2016-01-03 00:25:00 000",419.552,0.940954,2.01998,0.00664462,7524.80,231.531
"2016-01-03 00:35:00 000",418.823,1.04456,2.01384,0.00685142,7637.66,220.079
"2016-01-03 00:45:00 000",417.485,1.14981,2.00706,0.00736678,7711.53,250.037
"2016-01-03 00:55:00 000",418.706,0.975184,2.01222,0.00676652,7628.24,252.137
"2016-01-03 01:05:00 000",417.919,1.13725,2.00770,0.00733542,7557.36,228.299
"2016-01-03 01:15:00 000",418.446,1.05609,2.01146,0.00742107,7515.41,240.776
"2016-01-03 01:25:00 000",416.681,1.45663,2.00122,0.0102403,7562.42,242.536
"2016-01-03 01:35:00 000",414.434,1.70640,1.98824,0.0122345,7699.73,253.002
"2016-01-03 01:45:00 000",414.606,1.52550,1.99415,0.0128337,7729.19,242.010
"2016-01-03 01:55:00 000",413.617,1.96432,1.99038,0.0144750,7631.87,257.674